Probability
0 0 0 0 0 0 0 0 0 0 0 0 0 0 10 19 10 0 0 3 32 90 100 100 100 100 100 100 100 100 100 100 100 100 100 100 100 100 100 100 100 100 100 100 97 97 90 90 90
0 0 0 0 0 0 0 0 0 0 0 0 0 0 16 45 48 6 0 10 52 90 100 100 100 100 100 100 100 100 100 100 100 100 100 100 100 100 100 100 100 100 100 97 94 87 84 81 77
0 0 0 0 0 0 0 0 0 0 0 0 0 0 10 45 58 19 0 32 61 90 100 100 100 100 100 100 100 100 100 100 100 100 100 100 100 100 100 100 100 100 97 94 84 65 65 65 61
0 0 0 0 0 0 0 0 0 0 0 0 6 3 6 42 68 26 6 26 55 94 100 100 100 100 100 100 100 100 100 100 100 100 100 100 100 100 100 100 100 100 97 81 68 61 61 55 35
0 0 0 0 0 0 0 0 0 0 0 0 3 10 32 71 58 13 3 19 52 94 100 100 100 100 100 100 100 100 100 100 100 100 100 100 100 100 100 100 100 94 77 74 65 55 48 35 26
0 0 0 0 0 0 0 0 0 0 0 0 3 6 29 71 52 19 3 10 39 90 100 100 100 100 100 100 100 100 100 100 100 100 100 100 100 100 100 100 97 87 74 68 55 48 39 32 23
0 0 0 0 0 0 0 0 0 0 0 3 6 0 26 61 74 35 16 13 26 77 100 100 100 100 100 100 100 100 100 100 100 100 100 100 100 100 100 100 94 87 81 65 58 42 39 29 29
0 0 0 0 0 0 0 0 0 0 0 0 6 19 19 58 74 58 39 19 23 61 94 100 100 100 100 100 100 100 100 100 100 100 100 100 100 100 100 100 94 90 81 68 68 58 55 52 45
0 0 0 0 0 0 0 0 0 0 0 0 3 3 23 48 65 71 65 42 32 35 74 81 94 97 100 100 100 100 100 100 100 100 100 100 100 100 100 97 100 90 84 74 74 68 71 58 45
0 0 0 0 0 0 0 0 0 0 3 6 13 23 32 52 52 65 71 61 45 26 26 65 77 84 90 94 100 100 100 100 100 100 100 97 71 71 100 100 100 97 94 81 74 77 71 45 26
0 0 0 0 0 0 0 0 0 0 0 6 16 23 32 45 39 55 77 74 55 23 16 35 39 55 55 74 97 97 97 94 87 90 97 52 16 19 71 68 97 90 87 68 65 68 52 32 19
0 0 0 0 0 0 0 0 0 0 0 3 6 19 19 23 26 26 55 84 74 45 29 29 32 29 35 68 74 74 71 65 55 52 58 23 3 3 19 23 61 68 55 29 13 16 26 13 10
0 0 0 0 0 0 0 0 0 0 0 3 13 13 13 19 16 16 29 65 77 65 48 42 39 35 42 61 48 58 55 52 26 32 39 13 3 3 10 16 29 26 16 13 10 10 6 6 6
0 0 0 0 0 0 0 0 0 0 3 6 13 13 10 13 10 16 16 52 71 71 61 68 65 52 68 68 55 55 55 52 19 29 58 26 13 13 19 13 16 13 10 13 6 6 6 6 6
0 0 0 0 0 0 0 0 0 0 0 0 10 13 10 10 13 16 16 23 52 58 65 71 84 74 77 77 68 71 68 71 35 35 61 48 23 10 13 10 13 10 10 10 6 3 3 3 0
0 0 0 0 0 0 0 0 0 0 0 0 3 10 16 13 16 16 16 19 19 35 48 84 94 90 90 94 77 81 84 84 61 52 58 55 39 23 6 10 6 6 0 0 0 0 0 0 0
0 0 0 0 0 0 0 0 0 0 0 0 3 13 23 23 26 19 23 23 23 16 52 81 94 97 97 87 84 77 77 77 61 55 45 42 42 26 10 3 3 0 0 0 0 0 0 0 0
0 0 0 0 0 0 0 0 0 0 0 3 3 6 26 32 35 26 39 42 45 42 55 71 90 94 90 84 84 81 61 52 39 35 39 23 32 26 10 3 0 0 0 0 0 0 0 0 0
0 0 0 0 0 0 0 3 0 6 19 10 6 6 19 19 23 23 39 39 35 35 48 61 87 97 84 87 81 74 61 48 32 29 19 23 26 10 6 3 0 0 0 0 0 0 0 0 0
0 0 0 0 0 0 3 0 6 16 19 19 16 23 23 23 19 26 29 16 23 32 42 65 84 90 84 81 71 55 45 23 13 19 13 16 13 6 10 3 0 0 0 0 0 0 0 0 0
0 0 0 0 0 0 0 3 13 26 26 23 23 16 23 23 19 19 16 6 3 26 42 55 65 77 84 77 55 48 26 16 16 13 10 3 10 10 3 3 0 0 0 0 0 0 0 0 0
0 0 0 0 0 0 0 0 6 32 26 35 32 23 23 23 23 23 13 13 19 29 39 45 61 65 65 58 48 42 35 19 10 6 0 0 3 0 0 0 0 0 0 0 0 0 0 0 0
0 0 0 0 0 0 0 0 6 23 23 16 16 16 13 23 19 19 23 19 16 23 29 35 32 42 32 26 29 23 13 10 3 0 0 0 0 0 0 0 0 0 0 0 0 0 0 0 0
0 0 0 0 0 0 0 0 6 29 13 13 10 13 10 10 13 16 16 19 19 13 13 16 10 10 10 6 10 10 10 3 3 0 0 0 0 0 0 0 0 0 0 0 0 0 0 0 0
0 0 0 0 0 0 0 3 23 19 10 10 10 10 10 10 10 10 10 10 6 6 6 6 6 6 3 3 6 6 6 0 0 0 0 0 0 0 0 0 0 0 0 0 0 0 0 0 0
0 0 0 0 0 0 0 10 52 10 6 6 6 3 3 3 3 3 3 3 3 3 3 6 3 0 0 0 0 0 0 0 0 0 0 0 0 0 0 0 0 0 0 0 0 0 0 0 0
0 0 0 0 0 0 0 35 45 10 6 6 0 0 0 0 0 0 0 0 0 3 3 3 0 0 0 0 0 0 0 0 0 0 0 0 0 0 0 0 0 0 0 0 0 0 0 0 0
0 0 0 0 0 0 0 6 16 10 3 0 0 0 0 0 0 0 0 0 0 0 0 0 0 0 0 0 0 0 0 0 0 0 0 0 0 0 0 0 0 0 0 0 0 0 0 0 0
0 0 0 0 0 0 0 0 6 3 0 0 0 0 0 0 0 0 0 0 0 0 0 0 0 0 0 0 0 0 0 0 0 0 0 0 0 0 0 0 0 0 0 0 0 0 0 0 0
0 0 0 0 0 0 0 0 3 3 0 0 0 0 0 0 0 0 0 0 0 0 0 0 0 0 0 0 0 0 0 0 0 0 0 0 0 0 0 0 0 0 0 0 0 0 0 0 0
Height
5893 5896 5899 5901 5903 5903 5902 5902 5901 5901 5901 5901 5902 5903 5905 5905 5906 5907 5905 5903 5903 5903 5903 5903 5904 5904 5905 5906 5907 5907 5908 5908 5908 5909 5909 5909 5908 5908 5908 5908 5907 5907 5906 5906 5905 5905 5904 5903 5903
5889 5892 5896 5898 5900 5900 5901 5900 5900 5900 5900 5899 5900 5902 5904 5904 5904 5903 5902 5902 5901 5901 5902 5902 5903 5903 5904 5905 5906 5906 5907 5907 5907 5908 5908 5908 5907 5907 5907 5907 5906 5906 5905 5905 5904 5903 5903 5902 5901
5885 5888 5892 5894 5896 5897 5899 5899 5898 5898 5899 5898 5898 5900 5902 5902 5902 5901 5900 5900 5900 5900 5901 5901 5902 5902 5903 5904 5905 5905 5906 5906 5907 5907 5907 5907 5907 5907 5906 5906 5905 5905 5905 5904 5903 5903 5902 5901 5900
5881 5884 5887 5891 5893 5895 5897 5898 5897 5896 5898 5897 5897 5898 5900 5901 5900 5899 5899 5898 5899 5899 5900 5900 5900 5901 5902 5903 5904 5904 5905 5905 5906 5906 5906 5906 5906 5906 5906 5905 5905 5905 5904 5904 5903 5902 5901 5900 5899
5876 5879 5882 5886 5890 5893 5894 5895 5895 5894 5895 5896 5896 5897 5898 5899 5899 5898 5897 5897 5897 5898 5898 5899 5900 5900 5901 5902 5903 5904 5904 5905 5905 5906 5906 5906 5906 5905 5905 5905 5905 5904 5904 5903 5902 5901 5900 5899 5897
5873 5875 5878 5883 5887 5890 5892 5893 5893 5893 5894 5894 5895 5896 5897 5898 5898 5897 5896 5896 5896 5897 5897 5898 5899 5900 5901 5902 5902 5903 5904 5904 5905 5905 5905 5905 5905 5905 5905 5905 5904 5903 5903 5902 5901 5900 5899 5897 5896
5870 5871 5874 5880 5883 5886 5890 5891 5891 5891 5891 5893 5894 5895 5895 5897 5897 5896 5895 5895 5896 5896 5897 5898 5899 5900 5901 5902 5902 5903 5904 5904 5904 5905 5905 5905 5905 5904 5904 5904 5903 5902 5902 5901 5900 5898 5897 5895 5893
5865 5868 5870 5874 5879 5884 5888 5888 5888 5888 5889 5890 5891 5893 5894 5895 5895 5895 5894 5895 5895 5896 5897 5898 5899 5900 5901 5901 5902 5903 5904 5904 5904 5904 5904 5904 5904 5904 5903 5903 5902 5901 5900 5899 5898 5896 5894 5893 5891
5862 5865 5867 5871 5875 5881 5883 5884 5884 5884 5885 5888 5889 5891 5892 5893 5895 5895 5894 5894 5895 5896 5897 5898 5899 5900 5901 5901 5902 5903 5903 5903 5904 5904 5904 5904 5903 5903 5902 5901 5900 5899 5898 5897 5895 5894 5892 5890 5888
5859 5862 5864 5868 5872 5876 5878 5879 5880 5881 5882 5885 5887 5888 5890 5891 5893 5894 5893 5894 5895 5895 5896 5897 5898 5899 5900 5901 5902 5902 5903 5903 5903 5903 5903 5903 5902 5902 5901 5900 5898 5897 5896 5894 5892 5891 5889 5887 5885
5856 5859 5860 5863 5867 5870 5872 5874 5876 5878 5879 5882 5884 5886 5887 5889 5891 5892 5893 5893 5895 5895 5896 5897 5898 5899 5900 5901 5901 5901 5902 5902 5902 5902 5902 5901 5901 5900 5899 5898 5896 5895 5893 5891 5889 5888 5886 5883 5881
5854 5855 5857 5859 5862 5865 5868 5870 5872 5875 5877 5879 5881 5883 5885 5886 5888 5890 5891 5891 5893 5894 5895 5896 5897 5898 5899 5900 5900 5900 5901 5901 5901 5900 5900 5899 5899 5898 5897 5895 5894 5892 5891 5889 5887 5884 5882 5880 5877
5850 5852 5854 5856 5858 5861 5864 5866 5868 5871 5874 5875 5877 5880 5882 5884 5885 5886 5888 5889 5891 5892 5893 5894 5896 5897 5898 5898 5899 5899 5899 5899 5899 5898 5898 5897 5896 5895 5894 5893 5892 5890 5888 5886 5883 5881 5878 5876 5873
5845 5847 5850 5852 5855 5858 5861 5863 5865 5868 5870 5871 5873 5876 5879 5881 5882 5884 5885 5887 5889 5890 5891 5892 5894 5895 5896 5896 5897 5897 5896 5896 5896 5895 5895 5894 5894 5892 5891 5890 5889 5887 5885 5882 5880 5878 5875 5873 5870
5840 5843 5847 5849 5852 5854 5857 5860 5863 5865 5866 5868 5870 5873 5875 5877 5878 5881 5882 5884 5886 5888 5890 5891 5892 5893 5893 5894 5894 5894 5893 5893 5892 5892 5892 5891 5890 5889 5888 5887 5885 5883 5881 5879 5877 5874 5872 5869 5866
5835 5840 5844 5847 5849 5851 5855 5857 5859 5860 5862 5865 5866 5869 5871 5874 5875 5877 5879 5881 5882 5884 5887 5888 5889 5890 5891 5891 5891 5891 5890 5889 5889 5888 5888 5887 5885 5884 5883 5882 5880 5878 5876 5874 5872 5870 5867 5865 5862
5831 5836 5840 5844 5846 5848 5850 5853 5855 5857 5858 5861 5863 5865 5868 5870 5872 5873 5875 5876 5877 5880 5882 5884 5885 5886 5886 5887 5887 5887 5886 5886 5885 5884 5883 5882 5880 5879 5877 5875 5874 5872 5870 5868 5866 5864 5862 5860 5858
5827 5832 5835 5838 5840 5843 5846 5849 5851 5853 5854 5857 5859 5861 5863 5865 5868 5869 5871 5872 5873 5875 5876 5878 5880 5880 5881 5881 5881 5881 5881 5880 5879 5878 5877 5875 5874 5872 5870 5868 5867 5865 5864 5862 5860 5859 5857 5855 5853
5822 5827 5830 5833 5835 5838 5841 5844 5847 5849 5851 5853 5854 5856 5859 5862 5864 5866 5868 5870 5870 5870 5871 5873 5874 5875 5875 5874 5874 5874 5874 5873 5872 5871 5870 5868 5867 5865 5864 5862 5860 5859 5857 5856 5854 5852 5851 5849 5847
5816 5822 5826 5829 5831 5834 5837 5840 5842 5845 5847 5849 5850 5852 5855 5858 5861 5863 5864 5865 5866 5866 5866 5867 5868 5869 5870 5869 5868 5868 5867 5866 5865 5864 5863 5861 5859 5857 5856 5854 5852 5851 5850 5848 5847 5845 5843 5842 5840
5812 5818 5821 5823 5826 5830 5834 5837 5839 5841 5844 5845 5846 5848 5850 5853 5855 5857 5858 5860 5860 5861 5861 5861 5862 5862 5863 5863 5863 5862 5860 5859 5858 5856 5854 5852 5850 5848 5847 5845 5844 5843 5841 5840 5839 5837 5835 5834 5832
5807 5813 5816 5818 5821 5825 5830 5833 5836 5838 5840 5841 5843 5844 5846 5849 5851 5853 5854 5855 5856 5856 5855 5855 5856 5857 5857 5857 5856 5855 5853 5852 5850 5848 5846 5844 5841 5840 5838 5836 5835 5834 5832 5831 5830 5828 5826 5825 5823
5803 5807 5811 5814 5817 5821 5824 5828 5833 5834 5836 5838 5839 5841 5842 5844 5845 5847 5848 5849 5850 5850 5851 5851 5851 5851 5850 5849 5848 5847 5846 5844 5842 5840 5838 5836 5834 5832 5830 5828 5827 5825 5823 5822 5820 5819 5817 5815 5813
5797 5801 5806 5809 5813 5817 5821 5824 5828 5829 5831 5833 5835 5836 5838 5839 5840 5840 5841 5842 5843 5844 5845 5845 5844 5843 5841 5841 5840 5839 5837 5836 5833 5831 5830 5828 5826 5824 5822 5820 5818 5816 5814 5812 5811 5809 5807 5805 5802
5792 5797 5802 5805 5809 5814 5817 5819 5822 5824 5825 5827 5829 5830 5832 5833 5834 5834 5835 5836 5837 5837 5838 5838 5838 5836 5835 5834 5833 5831 5829 5828 5826 5824 5822 5820 5818 5816 5814 5812 5809 5806 5804 5802 5800 5798 5796 5793 5790
5787 5792 5797 5801 5805 5809 5812 5812 5814 5817 5819 5820 5822 5823 5825 5826 5827 5828 5829 5829 5830 5830 5830 5830 5830 5829 5827 5826 5824 5823 5821 5819 5817 5815 5814 5811 5809 5807 5805 5802 5799 5796 5794 5792 5789 5786 5783 5780 5777
5783 5787 5792 5796 5799 5803 5805 5807 5808 5811 5812 5814 5815 5816 5818 5819 5820 5821 5821 5822 5821 5821 5821 5821 5821 5820 5819 5817 5816 5814 5812 5810 5808 5806 5804 5802 5799 5797 5794 5792 5789 5786 5783 5780 5777 5774 5770 5767 5763
5779 5783 5786 5790 5793 5796 5800 5801 5803 5804 5806 5806 5807 5809 5810 5811 5812 5813 5813 5814 5813 5813 5813 5812 5812 5811 5810 5808 5807 5805 5803 5801 5799 5797 5795 5792 5789 5786 5784 5781 5777 5774 5771 5767 5764 5760 5756 5752 5748
5775 5779 5781 5785 5788 5791 5794 5798 5796 5798 5799 5799 5799 5800 5802 5803 5803 5804 5805 5805 5805 5805 5805 5804 5803 5802 5801 5799 5798 5796 5794 5792 5790 5787 5784 5782 5779 5775 5772 5769 5765 5761 5757 5753 5749 5745 5741 5737 5732
5772 5774 5777 5780 5783 5786 5788 5792 5790 5791 5791 5791 5792 5793 5793 5794 5795 5796 5797 5797 5797 5797 5796 5795 5795 5794 5792 5791 5789 5787 5785 5782 5780 5777 5773 5770 5767 5763 5760 5756 5751 5747 5742 5738 5734 5729 5725 5720 5715
Wind_Speed
24 22 21 20 18 15 10 5 0 2 5 7 8 8 9 12 13 13 12 11 10 9 8 8 9 9 10 11 10 10 11 11 10 10 10 10 10 11 11 12 12 12 13 13 13 13 13 13 13
27 25 24 23 21 19 14 8 2 2 6 8 9 9 10 12 13 13 12 10 8 7 8 8 8 9 9 10 9 9 9 9 8 8 8 8 8 9 9 10 10 11 11 11 12 12 12 12 12
28 28 28 27 25 22 18 12 6 1 4 11 12 11 10 10 10 11 11 9 8 7 7 7 7 8 8 8 8 8 8 7 7 6 6 6 6 7 7 8 9 9 10 10 10 11 11 12 12
29 31 31 30 27 24 19 14 7 3 4 12 15 15 13 10 9 10 9 8 7 6 6 6 6 7 7 8 7 7 7 6 6 5 5 4 5 5 6 7 7 8 8 9 9 10 11 12 13
28 31 32 31 28 26 21 16 11 7 6 13 16 16 15 12 10 10 8 7 6 6 5 5 5 6 7 7 7 7 6 5 4 4 3 3 3 4 5 6 6 7 7 8 9 10 11 12 13
25 29 31 30 29 28 24 17 12 9 8 13 17 16 15 12 11 10 8 6 5 5 5 5 5 6 6 6 6 6 5 4 4 3 2 1 1 2 4 5 5 6 7 8 8 9 11 12 13
22 24 26 28 31 30 25 19 14 11 11 15 18 17 15 13 11 9 7 5 5 5 5 5 5 5 5 5 5 5 4 4 4 3 2 1 0 1 2 4 5 6 7 8 9 10 11 13 14
20 21 22 28 31 30 25 21 16 14 15 17 19 18 15 14 10 8 7 5 5 5 5 4 5 5 5 5 5 5 5 4 4 3 2 1 1 1 2 4 5 6 7 8 9 10 12 13 15
19 17 17 23 29 30 29 25 20 17 18 19 21 20 17 14 11 7 7 6 6 5 5 5 5 5 5 5 5 4 4 4 3 2 2 1 1 2 3 4 6 7 8 9 10 11 13 14 16
18 14 14 20 28 31 31 29 23 19 20 20 22 21 19 17 13 7 7 6 7 6 6 6 6 6 5 5 4 3 3 3 2 2 1 1 1 2 4 5 6 8 9 10 11 12 14 15 17
17 14 17 22 28 31 32 29 25 22 22 21 22 21 19 18 13 8 7 7 7 7 7 7 6 6 5 4 4 3 3 2 1 0 1 2 3 4 5 6 7 8 9 11 11 13 14 16 18
18 17 19 23 28 30 30 28 25 24 23 23 23 21 18 17 14 10 8 8 8 8 7 7 6 5 4 3 2 2 1 1 0 1 2 3 5 6 7 7 8 9 11 12 13 14 15 16 17
21 20 21 24 26 26 26 26 24 25 25 25 25 22 19 17 15 13 11 9 8 8 8 7 6 5 3 2 1 0 1 2 2 3 3 4 6 7 7 7 8 10 11 13 14 16 16 17 17
23 23 24 25 25 24 23 23 23 23 27 27 25 22 19 17 15 14 12 10 10 9 8 7 7 5 4 3 2 3 4 5 5 5 5 6 7 8 8 9 10 12 13 13 14 15 16 16 17
27 26 26 25 23 23 22 21 21 23 27 28 26 23 21 18 16 14 14 12 13 12 10 9 8 7 6 5 5 6 7 7 8 8 9 9 10 10 11 12 13 13 13 14 14 15 16 17 17
29 27 25 23 22 21 21 19 22 25 27 27 26 24 22 20 18 16 17 16 15 14 13 12 10 10 9 9 9 9 10 10 11 12 12 12 13 14 15 15 16 16 16 16 16 17 17 17 18
29 26 24 23 22 21 20 19 21 24 26 26 25 23 22 22 21 20 19 18 16 15 15 14 13 13 12 13 13 13 13 14 15 16 16 16 17 18 18 19 19 20 19 19 19 19 19 19 20
28 26 25 24 22 20 19 19 20 23 25 26 26 24 24 23 23 22 21 19 18 18 17 15 15 15 15 15 16 17 18 18 19 20 21 22 21 22 22 23 23 23 22 22 22 22 22 22 22
28 27 26 25 23 21 19 19 21 23 25 25 26 26 24 24 24 24 23 22 21 20 19 18 17 16 17 19 20 22 23 23 24 25 26 27 27 27 27 27 27 26 27 26 25 25 25 25 26
29 27 25 24 23 21 20 21 22 24 24 24 25 25 25 24 25 25 25 23 22 21 20 20 18 19 19 21 24 26 27 27 29 30 31 32 32 32 32 31 31 30 30 29 29 28 28 28 29
29 27 26 25 25 23 21 21 24 24 24 25 26 25 25 25 25 25 26 25 24 22 23 23 22 23 23 25 27 29 31 32 34 34 35 36 37 36 36 34 34 32 32 32 32 31 31 31 31
29 28 28 26 25 23 22 22 24 25 26 26 26 26 26 25 27 28 27 27 26 26 26 26 25 25 27 29 30 32 34 36 37 37 38 38 38 38 38 38 36 36 37 36 34 34 34 34 35
31 30 30 28 27 27 26 25 25 27 28 28 28 27 27 27 28 29 29 30 30 29 29 29 30 31 33 33 33 34 36 38 39 38 38 37 37 37 38 38 38 39 39 37 37 38 38 39 39
33 33 33 31 29 29 27 27 26 28 31 31 31 30 29 28 29 30 31 32 33 33 33 33 35 35 35 36 36 38 39 40 40 39 39 39 39 39 40 41 42 42 41 41 41 41 42 43 43
32 33 34 33 32 30 27 28 29 29 32 34 34 33 32 32 32 33 33 34 36 36 36 36 37 38 39 40 40 41 41 41 41 40 40 40 41 41 42 44 45 44 45 45 44 45 46 47 47
30 32 33 33 33 31 29 32 32 31 33 35 36 35 35 35 35 35 36 37 38 38 38 38 39 40 42 42 42 42 41 41 41 42 42 43 43 44 44 45 46 45 46 47 48 48 49 51 52
27 28 29 30 31 31 32 34 33 30 31 34 36 36 36 36 35 37 38 39 40 40 40 40 40 41 41 42 42 42 42 42 42 43 44 44 45 46 47 48 48 49 50 51 52 53 54 55 56
23 24 26 28 30 31 31 32 32 30 30 30 32 35 35 35 36 36 38 39 39 39 39 40 41 40 40 40 40 41 42 43 44 45 46 47 48 49 49 50 51 53 54 56 57 58 58 59 60
20 23 25 27 29 31 31 32 33 31 30 29 30 32 33 34 36 37 37 37 37 38 39 40 40 39 39 40 40 41 43 44 45 46 48 49 51 52 53 55 56 57 58 59 60 61 62 62 62
18 20 23 26 27 30 33 35 35 32 30 30 29 30 30 32 35 36 36 36 37 38 38 37 37 38 39 40 41 42 43 44 46 48 50 52 53 55 56 58 60 61 61 62 62 63 63 63 64
Wind_Direction
209 204 196 192 190 195 208 214 356 4 322 307 308 310 308 306 305 301 295 291 283 279 267 255 248 240 236 238 243 249 250 252 256 259 264 268 273 278 282 286 288 289 291 291 291 290 289 289 289
211 207 202 197 196 200 208 209 178 1 322 303 306 311 303 303 298 291 285 282 279 271 260 250 243 238 235 235 237 240 240 242 246 253 261 267 273 278 281 285 288 291 293 293 293 293 294 295 295
214 210 206 201 200 204 210 210 193 120 314 303 305 311 305 298 293 285 279 275 269 262 253 245 238 231 226 223 226 228 227 230 235 242 251 262 271 276 282 287 291 293 295 296 297 299 300 300 299
218 215 210 205 201 206 213 212 200 174 270 290 300 306 305 302 301 292 280 270 262 255 250 245 234 222 216 214 215 213 211 214 220 229 240 254 267 276 283 289 294 298 301 304 305 305 305 304 302
222 219 214 207 200 205 211 208 202 196 239 276 289 297 300 301 302 295 278 260 254 250 245 238 227 215 209 206 203 200 200 199 204 214 222 238 263 280 289 295 299 303 308 310 309 308 306 304 301
228 226 219 209 200 205 212 209 204 206 231 265 277 285 291 295 297 290 273 252 245 246 239 230 220 213 203 193 187 183 183 181 181 181 184 214 277 296 305 310 313 316 318 316 313 311 309 306 302
234 232 222 210 203 204 208 211 213 222 237 257 269 278 284 290 291 289 272 248 236 235 229 218 205 191 181 173 164 159 156 149 145 141 137 132 9 330 329 328 329 330 329 326 321 316 313 308 304
237 234 223 211 204 202 204 213 215 224 243 254 265 273 279 285 287 288 272 248 229 221 215 203 186 169 159 148 140 136 133 129 125 124 117 99 57 9 346 334 333 334 332 328 322 318 316 312 306
240 237 225 211 202 199 203 211 215 225 240 253 262 268 271 273 274 278 269 246 225 214 202 190 177 163 154 144 134 127 122 119 119 117 103 86 43 3 347 336 331 330 326 323 319 317 314 312 308
241 232 214 203 198 198 204 211 214 224 237 248 257 262 263 265 263 259 260 239 219 203 193 188 179 166 153 140 125 115 115 117 123 118 102 15 345 347 348 341 337 336 333 328 322 320 317 315 311
236 221 206 196 195 199 205 209 213 224 234 242 250 253 256 259 249 243 241 232 219 203 191 184 181 166 149 136 121 112 113 117 130 107 351 340 331 330 338 341 339 339 338 335 329 326 321 317 314
227 217 208 200 198 200 203 206 210 220 229 238 242 242 246 249 247 238 224 223 220 211 196 189 189 177 163 146 121 114 111 104 301 298 312 322 327 327 333 338 337 334 334 334 329 324 320 317 316
222 216 211 206 204 204 205 207 210 216 222 232 238 242 245 251 246 237 220 212 211 208 200 198 199 202 203 204 195 108 308 312 312 312 313 322 328 332 331 333 329 330 331 332 332 331 325 319 316
218 216 214 211 208 209 211 213 214 216 222 230 237 241 245 248 246 237 227 214 212 212 211 211 216 230 239 249 269 283 293 303 306 307 307 312 318 324 319 322 323 323 326 329 331 330 325 323 319
219 219 219 218 213 212 213 215 216 216 223 228 235 237 243 251 253 244 236 226 214 210 215 218 226 236 251 263 272 281 290 299 300 300 305 307 310 313 314 315 315 317 320 322 323 324 319 319 319
223 223 222 220 216 215 218 213 215 215 222 225 231 237 242 249 252 246 235 235 223 216 219 224 230 242 256 265 271 279 284 291 294 295 298 297 302 305 307 310 311 312 313 314 318 323 321 319 317
225 225 221 218 216 219 219 214 212 212 218 222 227 234 239 247 249 249 241 239 229 225 225 232 239 246 257 267 274 280 285 289 292 293 294 295 297 300 301 304 305 309 309 309 312 316 316 315 314
224 223 218 213 211 214 213 209 206 207 214 217 221 228 235 242 249 247 243 246 242 237 233 234 243 253 264 273 279 284 288 290 291 293 294 295 295 297 297 298 298 302 304 306 306 309 308 309 309
221 220 215 208 205 208 203 196 195 200 208 214 220 226 232 238 245 249 252 251 250 243 235 234 240 252 266 274 279 283 286 288 289 291 292 291 290 292 292 293 294 297 298 299 302 302 302 303 304
216 213 205 201 203 204 195 190 194 201 208 217 225 230 236 241 247 251 252 254 256 255 248 246 248 254 262 270 276 281 283 286 288 289 289 288 288 289 288 288 290 292 292 294 297 298 300 300 300
213 206 196 196 201 203 197 193 200 208 214 221 227 232 239 244 250 253 256 257 259 263 261 255 258 260 265 269 274 277 280 283 285 286 286 286 286 286 286 286 288 288 290 293 295 297 298 298 297
208 202 196 194 200 201 205 204 208 215 221 226 231 235 239 246 251 256 260 262 267 267 267 264 265 268 269 271 273 276 279 281 283 284 284 284 285 285 286 287 287 287 290 291 293 295 296 296 295
206 202 200 199 202 204 208 211 213 220 225 229 235 239 243 249 253 257 260 263 266 268 271 272 272 272 271 272 273 276 278 279 281 282 282 283 286 287 287 289 291 292 292 291 292 294 294 296 294
205 206 206 206 208 209 212 219 217 221 225 230 235 240 244 249 253 256 260 263 265 267 271 273 274 276 275 277 278 279 279 280 281 281 282 283 284 285 286 288 290 291 291 292 293 293 293 294 294
208 209 210 213 216 216 217 226 226 225 227 230 234 239 243 246 251 255 258 261 264 267 270 272 274 276 278 280 280 279 279 279 280 281 282 282 283 284 287 288 289 289 291 292 292 293 292 292 292
211 212 214 217 220 219 220 228 230 230 230 233 235 239 242 246 250 254 258 261 264 267 269 270 273 274 276 277 277 277 277 277 278 279 280 282 283 285 287 287 288 290 291 292 292 292 292 291 291
211 215 218 221 220 220 221 227 231 231 233 235 237 240 244 248 252 255 258 261 264 267 269 271 273 274 275 276 276 276 277 277 278 279 281 282 284 285 286 287 287 289 290 290 290 291 290 290 290
212 212 217 219 220 220 221 226 231 234 235 237 238 240 244 247 250 254 257 261 263 265 268 270 272 273 275 275 275 276 277 278 279 280 282 283 285 286 287 288 288 289 289 289 289 289 289 290 290
209 212 216 220 221 222 222 228 233 238 241 242 243 245 246 250 253 254 256 258 261 263 265 268 270 270 271 273 274 276 277 278 280 281 282 284 285 286 287 287 288 289 289 288 288 289 289 289 290
206 213 217 221 222 225 227 231 233 240 248 251 253 253 256 256 256 256 257 258 261 263 264 266 267 269 271 273 275 277 278 279 280 281 283 284 285 286 286 287 288 288 288 288 289 290 290 290 290